Change the Weather History Date:

Sunday, November 25, 2012

  Actual Average Record
Temperature  
Mean Temperature 37 °F 34 °F  
Max Temperature 53 °F 47 °F 77 °F (1970)
Min Temperature 20 °F 20 °F -8 °F (1895)
Degree Days  
Heating Degree Days 28 31  
Month to date heating degree days 561 655  
Cooling Degree Days 0 0  
Month to date cooling degree days 0 0  
Year to date cooling degree days 1382 963  
Moisture  
Dew Point 22 °F    
Average Humidity 63    
Maximum Humidity 84    
Minimum Humidity 41    
Precipitation  
Precipitation 0.00 in 0.02 in 0.67 in (1944)
Sea Level Pressure  
Sea Level Pressure 30.00 in    
Wind  
Wind Speed 7 mph (ESE)    
Max Wind Speed 17 mph    
Max Gust Speed 23 mph    
Visibility 10 miles    
Events      
T = Trace of Precipitation, MM = Missing Value Source: NWS Daily Summary

Daily Weather History Graph

Daily Weather History Graph

Search for Another Location

Airport or City:

Trip Planner

Search our weather history database for the weather conditions in past years. The results will help you decide how hot, cold, wet, or windy it might be!

Date:

Astronomy

Nov. 25, 2012 Rise Set
Actual Time 6:44 AM MST 4:22 PM MST
Civil Twilight 6:14 AM MST 4:52 PM MST
Nautical Twilight 5:41 AM MST 5:25 PM MST
Astronomical Twilight 5:08 AM MST 5:58 PM MST
Moon 2:40 PM MST (11/25) 4:00 AM MST (11/25)
Length of Visible Light 10h 37m
Length of Day
9h 37m
Waxing Gibbous, 93% of the Moon is Illuminated
Nov 25
Waxing Gibbous
Nov 28
Full
Dec 6
Last Quarter
Dec 13
New
Dec 19
First Quarter

Hourly Weather History & Observations

Time (MST) Temp. Windchill Dew Point Humidity Pressure Visibility Wind Dir Wind Speed Gust Speed Precip Events Conditions
12:53 AM 27.0 °F 21.6 °F 16.0 °F 63% 29.97 in 10.0 mi WNW 4.6 mph - N/A   Clear
1:53 AM 30.0 °F 24.1 °F 17.1 °F 59% 29.97 in 10.0 mi WNW 5.8 mph - N/A   Clear
2:53 AM 28.9 °F 23.9 °F 18.0 °F 64% 29.97 in 10.0 mi NW 4.6 mph - N/A   Clear
3:53 AM 28.0 °F 22.8 °F 18.0 °F 66% 29.98 in 10.0 mi NW 4.6 mph - N/A   Clear
4:53 AM 27.0 °F 23.0 °F 17.1 °F 66% 30.01 in 10.0 mi West 3.5 mph - N/A   Clear
5:53 AM 26.1 °F - 17.1 °F 69% 30.01 in 10.0 mi Calm Calm - N/A   Clear
6:53 AM 19.9 °F - 15.1 °F 81% 30.03 in 10.0 mi Calm Calm - N/A   Clear
7:53 AM 28.0 °F - 18.0 °F 66% 30.04 in 10.0 mi Calm Calm - N/A   Clear
8:53 AM 36.0 °F - 21.9 °F 57% 30.05 in 10.0 mi Calm Calm - N/A   Clear
9:53 AM 45.0 °F 41.2 °F 27.0 °F 49% 30.02 in 10.0 mi SE 6.9 mph - N/A   Clear
10:53 AM 46.9 °F - 28.0 °F 48% 30.00 in 10.0 mi ESE 11.5 mph - N/A   Clear
11:53 AM 50.0 °F - 28.9 °F 44% 29.96 in 10.0 mi SE 13.8 mph - N/A   Clear
12:53 PM 52.0 °F - 28.9 °F 41% 29.93 in 10.0 mi SE 10.4 mph - N/A   Clear
1:53 PM 52.0 °F - 28.9 °F 41% 29.91 in 10.0 mi SE 16.1 mph 20.7 mph N/A   Clear
2:53 PM 51.1 °F - 28.9 °F 43% 29.91 in 10.0 mi SE 13.8 mph - N/A   Clear
3:53 PM 46.0 °F 41.4 °F 28.0 °F 50% 29.94 in 10.0 mi ESE 9.2 mph - N/A   Clear
4:53 PM 41.0 °F 34.3 °F 28.0 °F 60% 29.96 in 10.0 mi East 11.5 mph - N/A   Clear
5:53 PM 35.1 °F 27.9 °F 26.1 °F 70% 30.03 in 10.0 mi ENE 9.2 mph - N/A   Clear
6:53 PM 37.0 °F 28.9 °F 26.1 °F 65% 30.04 in 10.0 mi ESE 12.7 mph - N/A   Clear
7:53 PM 34.0 °F 26.6 °F 23.0 °F 64% 30.06 in 10.0 mi ESE 9.2 mph - N/A   Clear
8:53 PM 33.1 °F 28.7 °F 21.0 °F 61% 30.07 in 10.0 mi ESE 4.6 mph - N/A   Clear
9:53 PM 33.1 °F 25.5 °F 19.0 °F 56% 30.06 in 10.0 mi ESE 9.2 mph - N/A   Clear
10:53 PM 33.1 °F 26.9 °F 18.0 °F 54% 30.09 in 10.0 mi East 6.9 mph - N/A   Clear
11:53 PM 28.0 °F 21.7 °F 17.1 °F 63% 30.11 in 10.0 mi East 5.8 mph - N/A   Clear